Time,TemperatureF,DewpointF,PressureIn,WindDirection,WindDirectionDegrees,WindSpeedMPH,WindSpeedGustMPH,Humidity,HourlyPrecipIn,Conditions,Clouds,dailyrainin,SoftwareType,DateUTC
2013-01-09 00:05:00,75.4,69.2,29.82,SSE,158,3.8,5.1,81,0.12,,---,0.16,VWS V13.01,2013-01-09 05:05:00,
2013-01-09 00:10:00,75.4,68.8,29.82,SE,135,2.2,6.9,80,0.00,,---,0.16,VWS V13.01,2013-01-09 05:10:00,
2013-01-09 00:15:00,75.4,68.8,29.82,SE,135,2.5,2.5,80,0.00,,---,0.16,VWS V13.01,2013-01-09 05:15:00,
2013-01-09 00:20:00,75.4,68.8,29.81,SSE,158,2.0,2.5,80,0.00,,---,0.16,VWS V13.01,2013-01-09 05:20:00,
2013-01-09 00:25:00,75.4,68.8,29.81,ESE,112,1.3,5.1,80,0.00,,---,0.16,VWS V13.01,2013-01-09 05:25:00,
2013-01-09 00:35:00,75.4,68.8,29.81,ESE,112,4.3,15.2,80,0.00,,---,0.16,VWS V13.01,2013-01-09 05:35:00,
2013-01-09 00:45:00,75.4,68.8,29.81,SE,135,2.5,5.6,80,0.00,,---,0.16,VWS V13.01,2013-01-09 05:45:00,
2013-01-09 00:55:00,75.6,68.6,29.81,ESE,112,0.7,4.9,79,0.00,,---,0.16,VWS V13.01,2013-01-09 05:55:00,
2013-01-09 01:00:00,75.6,68.6,29.81,SE,135,2.9,6.7,79,0.00,,---,0.16,VWS V13.01,2013-01-09 06:00:00,
2013-01-09 01:10:00,75.6,68.6,29.81,ESE,112,3.6,3.6,79,0.00,,---,0.16,VWS V13.01,2013-01-09 06:10:00,
2013-01-09 01:20:00,75.7,68.8,29.81,East,90,8.1,8.1,79,0.00,,---,0.16,VWS V13.01,2013-01-09 06:20:00,
2013-01-09 01:25:00,75.7,68.8,29.82,SE,135,4.3,8.1,79,0.00,,---,0.16,VWS V13.01,2013-01-09 06:25:00,
2013-01-09 01:35:00,75.7,68.8,29.82,SE,135,7.6,7.6,79,0.00,,---,0.16,VWS V13.01,2013-01-09 06:35:00,
2013-01-09 01:45:00,75.9,68.6,29.82,ESE,112,2.7,6.7,78,0.00,,---,0.16,VWS V13.01,2013-01-09 06:45:00,
2013-01-09 01:55:00,75.9,68.6,29.82,ESE,112,4.5,4.5,78,0.00,,---,0.16,VWS V13.01,2013-01-09 06:55:00,
2013-01-09 02:00:00,75.9,68.6,29.82,East,90,8.3,8.3,78,0.00,,---,0.16,VWS V13.01,2013-01-09 07:00:00,
2013-01-09 02:10:00,75.9,68.6,29.82,SE,135,6.3,8.3,78,0.00,,---,0.16,VWS V13.01,2013-01-09 07:10:00,
2013-01-09 02:15:00,75.9,68.6,29.82,SSE,158,4.9,6.3,78,0.00,,---,0.16,VWS V13.01,2013-01-09 07:15:00,
2013-01-09 02:25:00,75.9,68.6,29.82,SE,135,0.0,6.0,78,0.00,,---,0.16,VWS V13.01,2013-01-09 07:25:00,
2013-01-09 02:35:00,75.9,68.6,29.82,SE,135,7.2,7.2,78,0.00,,---,0.16,VWS V13.01,2013-01-09 07:35:00,
2013-01-09 02:40:00,75.7,68.0,29.83,ESE,112,9.8,9.8,77,0.00,,---,0.16,VWS V13.01,2013-01-09 07:40:00,
2013-01-09 02:50:00,75.9,68.2,29.82,SE,135,6.0,6.0,77,0.00,,---,0.16,VWS V13.01,2013-01-09 07:50:00,
2013-01-09 02:55:00,75.9,68.2,29.82,ESE,112,1.6,6.0,77,0.00,,---,0.16,VWS V13.01,2013-01-09 07:55:00,
2013-01-09 03:00:00,75.9,68.6,29.82,East,90,8.1,8.1,78,0.00,,---,0.16,VWS V13.01,2013-01-09 08:00:00,
2013-01-09 03:10:00,75.9,68.6,29.82,East,90,8.1,8.1,78,0.00,,---,0.16,VWS V13.01,2013-01-09 08:10:00,
2013-01-09 03:15:00,75.7,68.4,29.82,SSE,158,8.1,8.1,78,0.00,,---,0.16,VWS V13.01,2013-01-09 08:15:00,
2013-01-09 03:25:00,75.7,68.4,29.83,East,90,1.6,2.2,78,0.00,,---,0.16,VWS V13.01,2013-01-09 08:25:00,
2013-01-09 03:35:00,75.7,68.4,29.83,ESE,112,2.9,2.9,78,0.00,,---,0.16,VWS V13.01,2013-01-09 08:35:00,
2013-01-09 03:45:00,75.9,68.6,29.83,ESE,112,5.6,5.6,78,0.00,,---,0.16,VWS V13.01,2013-01-09 08:45:00,
2013-01-09 03:55:00,75.9,68.9,29.83,ESE,112,7.2,7.2,79,0.00,,---,0.16,VWS V13.01,2013-01-09 08:55:00,
2013-01-09 04:00:00,75.9,68.9,29.83,SE,135,4.5,7.2,79,0.00,,---,0.16,VWS V13.01,2013-01-09 09:00:00,
2013-01-09 04:10:00,75.9,68.9,29.83,ESE,112,4.7,5.1,79,0.00,,---,0.16,VWS V13.01,2013-01-09 09:10:00,
2013-01-09 04:15:00,75.9,68.6,29.83,ESE,112,4.7,4.7,78,0.00,,---,0.16,VWS V13.01,2013-01-09 09:15:00,
2013-01-09 04:25:00,75.9,68.6,29.83,ESE,112,2.2,4.9,78,0.00,,---,0.16,VWS V13.01,2013-01-09 09:25:00,
2013-01-09 04:35:00,75.9,68.6,29.84,ESE,112,6.3,6.3,78,0.00,,---,0.16,VWS V13.01,2013-01-09 09:35:00,
2013-01-09 04:45:00,75.9,68.6,29.84,East,90,6.7,8.7,78,0.00,,---,0.16,VWS V13.01,2013-01-09 09:45:00,
2013-01-09 04:50:00,75.9,68.6,29.84,SE,135,0.7,6.7,78,0.00,,---,0.16,VWS V13.01,2013-01-09 09:50:00,
2013-01-09 05:00:00,75.7,68.0,29.85,ESE,112,0.4,4.9,77,0.00,,---,0.16,VWS V13.01,2013-01-09 10:00:00,
2013-01-09 05:10:00,75.7,68.0,29.85,ESE,112,7.6,7.6,77,0.00,,---,0.16,VWS V13.01,2013-01-09 10:10:00,
2013-01-09 05:20:00,75.6,67.8,29.85,SE,135,7.4,7.4,77,0.00,,---,0.16,VWS V13.01,2013-01-09 10:20:00,
2013-01-09 05:25:00,75.6,67.8,29.85,SE,135,7.4,9.2,77,0.00,,---,0.16,VWS V13.01,2013-01-09 10:25:00,
2013-01-09 05:35:00,75.4,67.3,29.85,ESE,112,4.3,7.8,76,0.00,,---,0.16,VWS V13.01,2013-01-09 10:35:00,
2013-01-09 05:40:00,75.4,67.3,29.85,South,180,6.3,6.3,76,0.00,,---,0.16,VWS V13.01,2013-01-09 10:40:00,
2013-01-09 05:50:00,75.4,67.7,29.84,SE,135,5.4,7.4,77,0.00,,---,0.16,VWS V13.01,2013-01-09 10:50:00,
2013-01-09 06:00:00,75.4,67.3,29.84,South,180,6.3,6.3,76,0.00,,---,0.16,VWS V13.01,2013-01-09 11:00:00,
2013-01-09 06:10:00,75.4,67.3,29.85,East,90,5.8,7.2,76,0.00,,---,0.16,VWS V13.01,2013-01-09 11:10:00,
2013-01-09 06:15:00,75.4,67.3,29.85,SSE,158,0.9,5.8,76,0.00,,---,0.16,VWS V13.01,2013-01-09 11:15:00,
2013-01-09 06:25:00,75.2,67.1,29.85,East,90,5.6,6.9,76,0.00,,---,0.16,VWS V13.01,2013-01-09 11:25:00,
2013-01-09 06:35:00,75.2,67.5,29.85,ESE,112,4.0,6.7,77,0.00,,---,0.16,VWS V13.01,2013-01-09 11:35:00,
2013-01-09 06:45:00,75.2,67.5,29.85,East,90,7.2,7.2,77,0.00,,---,0.16,VWS V13.01,2013-01-09 11:45:00,
2013-01-09 06:55:00,75.2,67.5,29.86,East,90,8.5,8.5,77,0.00,,---,0.16,VWS V13.01,2013-01-09 11:55:00,
2013-01-09 07:05:00,75.4,67.7,29.86,ESE,112,19.0,19.0,77,0.00,,---,0.16,VWS V13.01,2013-01-09 12:05:00,
2013-01-09 07:10:00,75.4,67.3,29.87,SE,135,4.0,19.0,76,0.00,,---,0.16,VWS V13.01,2013-01-09 12:10:00,
2013-01-09 07:20:00,75.4,67.3,29.87,ESE,112,4.7,8.3,76,0.00,,---,0.16,VWS V13.01,2013-01-09 12:20:00,
2013-01-09 07:30:00,75.4,67.3,29.88,ESE,112,6.9,6.9,76,0.00,,---,0.16,VWS V13.01,2013-01-09 12:30:00,
2013-01-09 07:35:00,75.4,67.3,29.88,ESE,112,6.9,6.9,76,0.00,,---,0.16,VWS V13.01,2013-01-09 12:35:00,
2013-01-09 07:45:00,75.4,67.3,29.89,SE,135,4.7,4.7,76,0.00,,---,0.16,VWS V13.01,2013-01-09 12:45:00,
2013-01-09 07:55:00,75.4,67.3,29.89,ESE,112,3.6,9.2,76,0.00,,---,0.16,VWS V13.01,2013-01-09 12:55:00,
2013-01-09 08:05:00,76.1,67.6,29.89,NNE,22,3.6,3.6,75,0.00,,---,0.16,VWS V13.01,2013-01-09 13:05:00,
2013-01-09 08:15:00,76.3,67.4,29.89,East,90,7.4,7.4,74,0.00,,---,0.16,VWS V13.01,2013-01-09 13:15:00,
2013-01-09 08:25:00,76.6,67.7,29.90,ESE,112,9.4,9.4,74,0.00,,---,0.16,VWS V13.01,2013-01-09 13:25:00,
2013-01-09 08:35:00,77.0,68.1,29.90,ESE,112,14.5,14.5,74,0.00,,---,0.16,VWS V13.01,2013-01-09 13:35:00,
2013-01-09 08:40:00,77.2,68.3,29.90,ENE,68,9.4,14.5,74,0.00,,---,0.16,VWS V13.01,2013-01-09 13:40:00,
2013-01-09 08:50:00,77.5,68.2,29.91,ESE,112,4.7,7.4,73,0.00,,---,0.16,VWS V13.01,2013-01-09 13:50:00,
2013-01-09 09:00:00,77.7,68.4,29.91,SE,135,5.8,8.1,73,0.00,,---,0.16,VWS V13.01,2013-01-09 14:00:00,
2013-01-09 09:05:00,78.1,67.9,29.91,East,90,10.5,10.5,71,0.00,,---,0.16,VWS V13.01,2013-01-09 14:05:00,
2013-01-09 09:15:00,78.1,68.3,29.91,ESE,112,10.3,10.3,72,0.00,,---,0.16,VWS V13.01,2013-01-09 14:15:00,
2013-01-09 09:25:00,78.6,68.4,29.92,SE,135,6.5,10.3,71,0.00,,---,0.16,VWS V13.01,2013-01-09 14:25:00,
2013-01-09 09:35:00,79.2,68.9,29.92,East,90,5.8,9.2,71,0.00,,---,0.16,VWS V13.01,2013-01-09 14:35:00,
2013-01-09 09:45:00,79.3,68.3,29.92,ESE,112,7.4,7.4,69,0.00,,---,0.16,VWS V13.01,2013-01-09 14:45:00,
2013-01-09 09:55:00,79.9,68.8,29.92,ENE,68,4.9,11.6,69,0.00,,---,0.16,VWS V13.01,2013-01-09 14:55:00,
2013-01-09 10:05:00,79.9,69.2,29.92,SSE,158,6.0,13.2,70,0.00,,---,0.16,VWS V13.01,2013-01-09 15:05:00,
2013-01-09 10:10:00,80.4,69.3,29.92,ESE,112,5.8,6.0,69,0.00,,---,0.16,VWS V13.01,2013-01-09 15:10:00,
2013-01-09 10:20:00,80.8,69.7,29.92,SSE,158,6.5,6.5,69,0.00,,---,0.16,VWS V13.01,2013-01-09 15:20:00,
2013-01-09 10:25:00,81.0,69.8,29.91,ESE,112,3.6,7.4,69,0.00,,---,0.16,VWS V13.01,2013-01-09 15:25:00,
2013-01-09 10:35:00,81.0,69.8,29.92,ESE,112,3.6,3.6,69,0.00,,---,0.16,VWS V13.01,2013-01-09 15:35:00,
2013-01-09 10:45:00,80.8,69.2,29.92,ESE,112,9.2,10.3,68,0.00,,---,0.16,VWS V13.01,2013-01-09 15:45:00,
2013-01-09 10:50:00,80.8,69.2,29.91,SE,135,6.3,10.7,68,0.00,,---,0.16,VWS V13.01,2013-01-09 15:50:00,
2013-01-09 11:00:00,81.1,69.6,29.91,SE,135,6.9,8.7,68,0.00,,---,0.16,VWS V13.01,2013-01-09 16:00:00,
2013-01-09 11:05:00,81.1,69.6,29.91,ESE,112,9.4,11.2,68,0.00,,---,0.16,VWS V13.01,2013-01-09 16:05:00,
2013-01-09 11:10:00,81.1,69.6,29.90,SE,135,2.7,9.4,68,0.00,,---,0.16,VWS V13.01,2013-01-09 16:10:00,
2013-01-09 11:20:00,81.1,69.6,29.90,ESE,112,6.7,6.7,68,0.00,,---,0.16,VWS V13.01,2013-01-09 16:20:00,
2013-01-09 11:30:00,81.3,69.8,29.90,ESE,112,11.6,11.6,68,0.00,,---,0.16,VWS V13.01,2013-01-09 16:30:00,
2013-01-09 11:40:00,81.7,70.1,29.89,SE,135,6.0,7.8,68,0.00,,---,0.16,VWS V13.01,2013-01-09 16:40:00,
2013-01-09 11:50:00,82.0,70.4,29.89,SE,135,5.6,7.8,68,0.00,,---,0.16,VWS V13.01,2013-01-09 16:50:00,
2013-01-09 11:55:00,82.2,70.6,29.89,ESE,112,3.8,10.5,68,0.00,,---,0.16,VWS V13.01,2013-01-09 16:55:00,
2013-01-09 12:05:00,82.2,70.2,29.89,ESE,112,4.0,7.6,67,0.00,,---,0.16,VWS V13.01,2013-01-09 17:05:00,
2013-01-09 12:15:00,82.4,70.3,29.89,ESE,112,13.6,13.6,67,0.00,,---,0.16,VWS V13.01,2013-01-09 17:15:00,
2013-01-09 12:25:00,81.9,70.3,29.88,SE,135,4.0,7.8,68,0.00,,---,0.16,VWS V13.01,2013-01-09 17:25:00,
2013-01-09 12:30:00,82.0,70.4,29.88,SSE,158,8.1,8.1,68,0.00,,---,0.16,VWS V13.01,2013-01-09 17:30:00,
2013-01-09 12:40:00,81.9,70.3,29.87,SSE,158,8.1,8.1,68,0.00,,---,0.16,VWS V13.01,2013-01-09 17:40:00,
2013-01-09 12:45:00,81.9,69.8,29.87,ESE,112,7.6,8.1,67,0.00,,---,0.16,VWS V13.01,2013-01-09 17:45:00,
2013-01-09 12:55:00,81.7,69.7,29.87,SE,135,5.6,8.1,67,0.00,,---,0.16,VWS V13.01,2013-01-09 17:55:00,
2013-01-09 13:05:00,82.0,70.4,29.87,SE,135,6.9,7.6,68,0.00,,---,0.16,VWS V13.01,2013-01-09 18:05:00,
2013-01-09 13:10:00,82.0,70.0,29.87,SE,135,7.2,7.2,67,0.00,,---,0.16,VWS V13.01,2013-01-09 18:10:00,
2013-01-09 13:20:00,82.0,70.0,29.86,East,90,18.8,18.8,67,0.00,,---,0.16,VWS V13.01,2013-01-09 18:20:00,
2013-01-09 13:25:00,82.0,70.0,29.86,SE,135,10.1,18.8,67,0.00,,---,0.16,VWS V13.01,2013-01-09 18:25:00,
2013-01-09 13:30:00,82.0,70.0,29.86,ESE,112,16.3,16.3,67,0.00,,---,0.16,VWS V13.01,2013-01-09 18:30:00,
2013-01-09 13:40:00,82.0,70.0,29.86,ESE,112,9.4,9.4,67,0.00,,---,0.16,VWS V13.01,2013-01-09 18:40:00,
2013-01-09 13:45:00,82.0,70.0,29.86,East,90,1.1,11.2,67,0.00,,---,0.16,VWS V13.01,2013-01-09 18:45:00,
2013-01-09 13:50:00,82.0,70.4,29.86,ENE,68,16.1,16.1,68,0.00,,---,0.16,VWS V13.01,2013-01-09 18:50:00,
2013-01-09 14:00:00,81.7,70.1,29.85,WSW,248,10.1,12.3,68,0.00,,---,0.16,VWS V13.01,2013-01-09 19:00:00,
2013-01-09 14:10:00,81.5,69.9,29.86,WSW,248,8.3,8.3,68,0.00,,---,0.16,VWS V13.01,2013-01-09 19:10:00,
2013-01-09 14:15:00,81.5,69.9,29.86,WSW,248,5.4,8.3,68,0.00,,---,0.16,VWS V13.01,2013-01-09 19:15:00,
2013-01-09 14:25:00,81.5,69.9,29.86,WSW,248,10.1,10.1,68,0.00,,---,0.16,VWS V13.01,2013-01-09 19:25:00,
2013-01-09 14:35:00,81.1,69.6,29.85,WSW,248,7.4,14.5,68,0.00,,---,0.16,VWS V13.01,2013-01-09 19:35:00,
2013-01-09 14:45:00,81.3,69.8,29.86,WSW,248,8.5,8.7,68,0.00,,---,0.16,VWS V13.01,2013-01-09 19:45:00,
2013-01-09 14:50:00,81.1,69.6,29.85,WSW,248,6.7,8.5,68,0.00,,---,0.16,VWS V13.01,2013-01-09 19:50:00,
2013-01-09 14:55:00,81.1,69.6,29.85,WSW,248,6.7,6.7,68,0.00,,---,0.16,VWS V13.01,2013-01-09 19:55:00,
2013-01-09 15:00:00,81.0,69.4,29.86,WSW,248,7.4,7.6,68,0.00,,---,0.16,VWS V13.01,2013-01-09 20:00:00,
2013-01-09 15:10:00,80.4,68.9,29.86,WSW,248,5.8,5.8,68,0.00,,---,0.16,VWS V13.01,2013-01-09 20:10:00,
2013-01-09 15:20:00,80.4,68.9,29.86,WSW,248,4.3,6.5,68,0.00,,---,0.16,VWS V13.01,2013-01-09 20:20:00,
2013-01-09 15:30:00,80.4,68.9,29.86,WSW,248,4.7,4.7,68,0.00,,---,0.16,VWS V13.01,2013-01-09 20:30:00,
2013-01-09 15:40:00,80.4,68.9,29.86,WSW,248,8.3,8.3,68,0.00,,---,0.16,VWS V13.01,2013-01-09 20:40:00,
2013-01-09 15:50:00,80.2,69.2,29.86,WSW,248,5.4,9.4,69,0.00,,---,0.16,VWS V13.01,2013-01-09 20:50:00,
2013-01-09 15:55:00,80.1,69.0,29.86,WSW,248,9.0,9.0,69,0.00,,---,0.16,VWS V13.01,2013-01-09 20:55:00,
2013-01-09 16:05:00,80.1,69.0,29.86,ESE,112,9.6,11.6,69,0.00,,---,0.16,VWS V13.01,2013-01-09 21:05:00,
2013-01-09 16:15:00,79.5,68.9,29.86,WSW,248,5.6,8.5,70,0.00,,---,0.16,VWS V13.01,2013-01-09 21:15:00,
2013-01-09 16:25:00,79.5,68.9,29.86,WSW,248,8.5,8.5,70,0.00,,---,0.16,VWS V13.01,2013-01-09 21:25:00,
2013-01-09 16:30:00,79.5,68.9,29.87,WSW,248,8.5,8.5,70,0.00,,---,0.16,VWS V13.01,2013-01-09 21:30:00,
2013-01-09 16:40:00,79.2,68.5,29.87,ENE,68,2.5,9.4,70,0.00,,---,0.16,VWS V13.01,2013-01-09 21:40:00,
2013-01-09 16:45:00,79.2,68.9,29.87,WSW,248,6.5,6.5,71,0.00,,---,0.16,VWS V13.01,2013-01-09 21:45:00,
2013-01-09 16:55:00,79.0,68.8,29.87,SSE,158,5.1,5.1,71,0.00,,---,0.16,VWS V13.01,2013-01-09 21:55:00,
2013-01-09 17:05:00,78.6,68.4,29.87,East,90,9.4,9.4,71,0.00,,---,0.16,VWS V13.01,2013-01-09 22:05:00,
2013-01-09 17:15:00,78.3,68.1,29.87,ESE,112,1.8,8.1,71,0.00,,---,0.16,VWS V13.01,2013-01-09 22:15:00,
2013-01-09 17:25:00,78.1,68.3,29.88,ESE,112,0.0,5.4,72,0.00,,---,0.16,VWS V13.01,2013-01-09 22:25:00,
2013-01-09 17:30:00,77.9,68.2,29.88,SE,135,2.0,7.4,72,0.00,,---,0.16,VWS V13.01,2013-01-09 22:30:00,
2013-01-09 17:40:00,77.7,68.0,29.88,East,90,7.2,8.7,72,0.00,,---,0.16,VWS V13.01,2013-01-09 22:40:00,
2013-01-09 17:50:00,77.5,67.4,29.89,East,90,0.0,12.3,71,0.00,,---,0.16,VWS V13.01,2013-01-09 22:50:00,
2013-01-09 18:00:00,77.5,68.2,29.89,ESE,112,3.1,6.5,73,0.00,,---,0.16,VWS V13.01,2013-01-09 23:00:00,
2013-01-09 18:05:00,77.5,68.2,29.89,NE,45,4.0,4.0,73,0.00,,---,0.16,VWS V13.01,2013-01-09 23:05:00,
2013-01-09 18:15:00,77.5,68.2,29.89,ESE,112,11.0,11.0,73,0.00,,---,0.16,VWS V13.01,2013-01-09 23:15:00,
2013-01-09 18:20:00,77.5,68.2,29.89,ENE,68,4.0,11.0,73,0.00,,---,0.16,VWS V13.01,2013-01-09 23:20:00,
2013-01-09 18:30:00,77.4,68.0,29.90,ENE,68,6.0,6.0,73,0.00,,---,0.16,VWS V13.01,2013-01-09 23:30:00,
2013-01-09 18:35:00,77.2,67.9,29.90,ESE,112,4.5,6.0,73,0.00,,---,0.16,VWS V13.01,2013-01-09 23:35:00,
2013-01-09 18:45:00,77.2,67.5,29.90,ENE,68,10.5,10.5,72,0.00,,---,0.16,VWS V13.01,2013-01-09 23:45:00,
2013-01-09 18:50:00,77.2,67.5,29.90,SE,135,7.4,14.5,72,0.00,,---,0.16,VWS V13.01,2013-01-09 23:50:00,
2013-01-09 19:00:00,77.2,67.9,29.90,East,90,9.2,9.8,73,0.00,,---,0.16,VWS V13.01,2013-01-10 00:00:00,
2013-01-09 19:10:00,77.0,67.7,29.90,East,90,8.7,10.7,73,0.00,,---,0.16,VWS V13.01,2013-01-10 00:10:00,
2013-01-09 19:15:00,76.8,67.5,29.90,East,90,6.9,8.7,73,0.00,,---,0.16,VWS V13.01,2013-01-10 00:15:00,
2013-01-09 19:20:00,77.0,67.7,29.90,SE,135,3.1,6.9,73,0.00,,---,0.16,VWS V13.01,2013-01-10 00:20:00,
2013-01-09 19:30:00,77.0,67.7,29.90,ESE,112,7.6,7.6,73,0.00,,---,0.16,VWS V13.01,2013-01-10 00:30:00,
2013-01-09 19:40:00,76.8,67.5,29.91,East,90,5.1,7.8,73,0.00,,---,0.16,VWS V13.01,2013-01-10 00:40:00,
2013-01-09 19:45:00,76.8,67.5,29.91,ENE,68,7.2,7.2,73,0.00,,---,0.16,VWS V13.01,2013-01-10 00:45:00,
2013-01-09 19:55:00,76.8,67.5,29.91,SE,135,7.6,7.6,73,0.00,,---,0.16,VWS V13.01,2013-01-10 00:55:00,
2013-01-09 20:00:00,76.8,67.5,29.91,SE,135,7.6,7.6,73,0.00,,---,0.16,VWS V13.01,2013-01-10 01:00:00,
2013-01-09 20:10:00,76.8,67.5,29.91,East,90,7.2,9.6,73,0.00,,---,0.16,VWS V13.01,2013-01-10 01:10:00,
2013-01-09 20:20:00,76.8,67.5,29.91,ESE,112,9.6,11.0,73,0.00,,---,0.16,VWS V13.01,2013-01-10 01:20:00,
2013-01-09 20:30:00,76.8,67.1,29.91,ESE,112,5.8,8.1,72,0.00,,---,0.16,VWS V13.01,2013-01-10 01:30:00,
2013-01-09 20:40:00,76.8,67.5,29.91,East,90,14.1,14.1,73,0.00,,---,0.16,VWS V13.01,2013-01-10 01:40:00,
2013-01-09 20:45:00,76.8,67.5,29.91,East,90,14.1,14.1,73,0.00,,---,0.16,VWS V13.01,2013-01-10 01:45:00,
2013-01-09 20:50:00,76.8,67.5,29.91,SE,135,8.5,14.1,73,0.00,,---,0.16,VWS V13.01,2013-01-10 01:50:00,
2013-01-09 21:00:00,76.6,66.9,29.92,SSE,158,0.7,11.9,72,0.00,,---,0.16,VWS V13.01,2013-01-10 02:00:00,
2013-01-09 21:10:00,76.6,66.9,29.92,NE,45,4.7,10.7,72,0.00,,---,0.16,VWS V13.01,2013-01-10 02:10:00,
2013-01-09 21:15:00,76.6,66.9,29.93,ENE,68,3.1,4.7,72,0.00,,---,0.16,VWS V13.01,2013-01-10 02:15:00,
2013-01-09 21:25:00,76.6,67.3,29.93,ESE,112,9.4,10.5,73,0.00,,---,0.16,VWS V13.01,2013-01-10 02:25:00,
2013-01-09 21:35:00,76.6,67.3,29.93,SE,135,8.3,8.3,73,0.00,,---,0.16,VWS V13.01,2013-01-10 02:35:00,
2013-01-09 21:45:00,76.6,67.3,29.93,ESE,112,4.9,4.9,73,0.00,,---,0.16,VWS V13.01,2013-01-10 02:45:00,
2013-01-09 21:50:00,76.6,67.3,29.93,ESE,112,12.3,12.3,73,0.00,,---,0.16,VWS V13.01,2013-01-10 02:50:00,
2013-01-09 22:00:00,76.6,66.9,29.93,ENE,68,9.2,9.2,72,0.00,,---,0.16,VWS V13.01,2013-01-10 03:00:00,
2013-01-09 22:05:00,76.6,66.9,29.93,ESE,112,8.3,9.2,72,0.00,,---,0.12,VWS V13.01,2013-01-10 03:05:00,
2013-01-09 22:15:00,76.6,66.9,29.93,NE,45,2.0,4.7,72,0.00,,---,0.12,VWS V13.01,2013-01-10 03:15:00,
2013-01-09 22:25:00,76.6,66.9,29.93,ESE,112,6.7,9.0,72,0.00,,---,0.12,VWS V13.01,2013-01-10 03:25:00,
2013-01-09 22:35:00,76.6,66.9,29.93,NNE,22,7.4,7.4,72,0.00,,---,0.12,VWS V13.01,2013-01-10 03:35:00,
2013-01-09 22:40:00,76.6,66.9,29.93,East,90,1.3,12.5,72,0.00,,---,0.12,VWS V13.01,2013-01-10 03:40:00,
2013-01-09 22:50:00,76.6,66.9,29.93,ENE,68,7.4,12.1,72,0.00,,---,0.12,VWS V13.01,2013-01-10 03:50:00,
2013-01-09 22:55:00,76.6,66.9,29.93,East,90,7.6,7.6,72,0.00,,---,0.12,VWS V13.01,2013-01-10 03:55:00,
2013-01-09 23:05:00,76.5,67.2,29.93,East,90,5.1,7.6,73,0.00,,---,0.00,VWS V13.01,2013-01-10 04:05:00,
2013-01-09 23:15:00,76.3,66.6,29.92,East,90,5.4,10.7,72,0.00,,---,0.00,VWS V13.01,2013-01-10 04:15:00,
2013-01-09 23:25:00,76.3,66.6,29.92,South,180,0.9,6.9,72,0.00,,---,0.00,VWS V13.01,2013-01-10 04:25:00,
2013-01-09 23:30:00,76.3,67.0,29.92,ESE,112,15.7,15.7,73,0.00,,---,0.00,VWS V13.01,2013-01-10 04:30:00,
2013-01-09 23:40:00,76.3,67.0,29.92,ESE,112,8.1,10.5,73,0.00,,---,0.00,VWS V13.01,2013-01-10 04:40:00,
2013-01-09 23:45:00,76.3,67.0,29.92,East,90,6.7,8.1,73,0.00,,---,0.00,VWS V13.01,2013-01-10 04:45:00,
2013-01-09 23:55:00,76.3,66.6,29.92,ENE,68,14.1,14.1,72,0.00,,---,0.00,VWS V13.01,2013-01-10 04:55:00,